Location: Boiro
(42.6475°N, 8.8834°W)
Time: 08:05:18
(UTC+01:00)

SR - Pass Details

Date: 06 December 2021
Orbit: 583 x 872 km, 66.7° (Epoch: 16 January)

Event Time Altitude Azimuth Distance (km) Brightness Sun altitude
Rises 09:14:58 0° 329° (NNW) 2,829 ? 2.9°
Reaches altitude 10° 09:17:09 10° 330° (NNW) 1,941 ? 3.2°
Maximum altitude 09:21:30 87° 57° (ENE) 626 ? 3.8°
Drops below altitude 10° 09:26:07 10° 149° (SSE) 2,051 ? 4.5°
Sets 09:28:29 0° 150° (SSE) 3,004 ? 4.9°
